Waarnemingen

Advertentie
Mijn weer
Topcliffe, Groot Brittannië (3265): temperatuur & dauwpunt: 15.08.2018 05:00:00 - 21.08.2018 05:00:00 (BST)Topcliffe, Groot Brittannië (3265): windsnelheid & windstoten: 15.08.2018 05:00:00 - 21.08.2018 05:00:00 (BST)Topcliffe, Groot Brittannië (3265): windrichting: 15.08.2018 05:00:00 - 21.08.2018 05:00:00 (BST)Topcliffe, Groot Brittannië (3265): luchtdruk: 15.08.2018 05:00:00 - 21.08.2018 05:00:00 (BST)Topcliffe, Groot Brittannië (3265): zicht: 15.08.2018 05:00:00 - 21.08.2018 05:00:00 (BST)Topcliffe, Groot Brittannië (3265): neerslag: 15.08.2018 05:00:00 - 21.08.2018 05:00:00 (BST)
Datum & Tijd tt [°C] td [°C] ff [km/u] ff [kn] fx [km/u] fx [kn] dd ppp [hPa] vv [km] rr [mm]
21.08.2018 05:00:00 16,0 16,0 4 2 - - N - 3,2 0,0
21.08.2018 04:00:00 15,8 15,7 11 6 - - NNW 1018,5 2,7 0,0
21.08.2018 03:00:00 16,3 16,1 8 4 - - NNW 1018,7 2,1 0,0
21.08.2018 02:00:00 16,2 16,0 2 1 - - ONO 1018,6 2,6 0,0
21.08.2018 01:00:00 16,5 16,3 4 2 - - W 1018,8 3,3 0,0
21.08.2018 00:00:00 16,5 16,1 4 2 - - NNO 1018,7 2,4 0,0
20.08.2018 23:00:00 16,9 16,6 4 2 - - Z 1018,8 8 0,0
20.08.2018 22:00:00 17,0 16,8 5 3 - - O 1018,5 3,6 0,8
20.08.2018 21:00:00 17,3 17,0 5 3 - - NO 1018,6 4,3 4,4
20.08.2018 20:00:00 17,7 17,0 9 5 - - O 1018,2 4,6 5,2
20.08.2018 19:00:00 19,3 17,1 13 7 - - O 1018,0 11 0,0
20.08.2018 18:00:00 21,4 16,6 8 4 - - ZZW 1017,9 35 0,0
20.08.2018 17:00:00 22,0 16,8 9 5 - - ZZW 1017,9 40 0,0
20.08.2018 16:00:00 21,8 17,4 5 3 - - ZZW 1018,2 45 0,0
20.08.2018 15:00:00 21,5 16,9 9 5 - - ZW 1018,6 35 0,0
20.08.2018 14:00:00 20,5 16,9 13 7 - - Z 1018,8 40 0,0
20.08.2018 13:00:00 20,3 16,8 5 3 - - Z 1019,0 40 0,0
20.08.2018 12:00:00 19,8 16,4 8 4 - - Z 1019,0 45 0,0
20.08.2018 11:00:00 19,6 15,8 2 1 - - ZW 1019,3 45 0,0
20.08.2018 10:00:00 19,0 15,6 4 2 - - OZO 1019,2 50 0,0
20.08.2018 09:00:00 17,9 15,0 4 2 - - Z 1018,9 40 0,0
20.08.2018 08:00:00 16,3 15,0 5 3 - - ZZO 1019,0 30 0,0
20.08.2018 07:00:00 15,9 15,1 5 3 - - ONO 1018,7 21 0,0
20.08.2018 06:00:00 15,5 14,7 5 3 - - ZO 1018,3 30 0,0
20.08.2018 05:00:00 15,9 14,4 4 2 - - ZO 1018,1 50 0,0
20.08.2018 04:00:00 15,7 15,2 8 4 - - ZZW 1018,2 35 0,0
20.08.2018 03:00:00 15,3 14,9 4 2 - - OZO 1018,4 9 0,0
20.08.2018 02:00:00 15,3 14,7 2 1 - - Z 1018,2 11 0,0
20.08.2018 01:00:00 15,4 14,8 2 1 - - ZO 1018,2 11 0,0
20.08.2018 00:00:00 16,1 14,9 5 3 - - NW 1018,4 45 0,0
19.08.2018 23:00:00 16,5 15,5 4 2 - - NW 1018,2 45 0,0
19.08.2018 22:00:00 16,8 15,8 5 3 - - NNW 1017,8 7 0,0
19.08.2018 21:00:00 16,9 15,7 9 5 - - N 1017,4 50 0,0
19.08.2018 20:00:00 18,9 16,3 18 10 - - WNW 1016,9 30 0,0
19.08.2018 19:00:00 20,3 16,0 22 12 - - W 1016,0 50 0,0
19.08.2018 18:00:00 21,8 16,0 22 12 - - W 1015,3 40 0,0
19.08.2018 17:00:00 22,4 16,7 24 13 - - WNW 1015,1 40 0,0
19.08.2018 16:00:00 21,7 15,8 26 14 - - W 1014,4 45 0,0
19.08.2018 15:00:00 22,3 16,5 26 14 - - W 1013,8 19 0,0
19.08.2018 14:00:00 21,8 16,1 22 12 - - WZW 1013,4 50 0,0
19.08.2018 13:00:00 21,5 15,1 29 16 48 26 W 1013,0 29 0,0
19.08.2018 12:00:00 20,5 15,4 28 15 - - W 1012,3 40 0,0
19.08.2018 11:00:00 19,7 16,2 24 13 - - WZW 1012,3 45 0,0
19.08.2018 10:00:00 18,7 16,6 15 8 - - WZW 1012,1 40 0,0
19.08.2018 09:00:00 18,1 16,2 24 13 - - ZW 1011,5 50 0,0
19.08.2018 08:00:00 17,7 16,1 22 12 - - Z 1011,4 45 0,0
19.08.2018 07:00:00 17,3 16,9 21 11 - - Z 1011,5 21 0,4
19.08.2018 06:00:00 17,6 16,9 21 11 - - Z 1011,9 7 0,4
19.08.2018 05:00:00 18,5 16,4 18 10 - - ZZO 1012,3 50 0,0
19.08.2018 04:00:00 18,2 16,7 15 8 - - ZO 1013,5 50 0,0
19.08.2018 03:00:00 18,7 16,7 15 8 - - Z 1014,8 50 0,0
19.08.2018 02:00:00 18,2 16,5 13 7 - - Z 1015,3 40 0,0
19.08.2018 01:00:00 17,0 15,5 8 4 - - ZO 1016,0 50 0,0
19.08.2018 00:00:00 18,5 16,3 8 4 - - ZZW 1016,3 45 0,0
18.08.2018 23:00:00 19,3 16,3 13 7 - - ZW 1016,5 50 0,0
18.08.2018 22:00:00 18,9 16,4 13 7 - - ZZW 1016,9 50 0,0
18.08.2018 21:00:00 19,6 16,4 5 3 - - ZW 1016,7 45 0,0
18.08.2018 20:00:00 19,7 16,3 13 7 - - ZZW 1016,5 25 0,0
18.08.2018 19:00:00 19,7 15,8 9 5 - - ZW 1016,2 30 0,0
18.08.2018 18:00:00 19,5 15,3 15 8 - - WZW 1016,4 23 0,0
18.08.2018 17:00:00 19,5 15,0 15 8 - - WZW 1016,6 30 0,0
18.08.2018 16:00:00 19,5 14,8 21 11 - - ZW 1016,6 30 0,0
18.08.2018 15:00:00 19,3 14,9 26 14 - - WZW 1016,9 35 0,0
18.08.2018 14:00:00 18,7 14,6 26 14 - - WZW 1016,7 35 0,0
18.08.2018 13:00:00 18,9 14,6 24 13 46 25 WZW 1016,7 35 0,0
18.08.2018 12:00:00 19,3 14,3 24 13 - - WZW 1016,3 30 0,0
18.08.2018 11:00:00 18,2 14,1 22 12 46 25 WZW 1016,2 45 0,0
18.08.2018 10:00:00 17,8 14,3 24 13 - - WZW 1015,9 45 0,0
18.08.2018 09:00:00 17,2 13,8 24 13 - - ZW 1015,8 30 0,0
18.08.2018 08:00:00 16,9 13,5 22 12 - - ZW 1015,7 40 0,0
18.08.2018 07:00:00 16,9 13,1 22 12 - - WZW 1015,5 23 0,0
18.08.2018 06:00:00 16,9 13,6 29 16 - - WZW 1014,8 25 0,0
18.08.2018 05:00:00 16,8 14,1 22 12 - - WZW 1014,5 40 0,0
18.08.2018 04:00:00 16,8 14,1 15 8 - - ZW 1014,2 40 0,0
18.08.2018 03:00:00 17,1 13,9 22 12 - - WZW 1014,6 30 0,0
18.08.2018 02:00:00 16,8 13,6 21 11 - - ZW 1014,6 35 0,0
18.08.2018 01:00:00 16,9 13,8 18 10 - - ZW 1015,2 30 0,0
18.08.2018 00:00:00 16,5 13,8 26 14 - - ZW 1015,1 40 0,0
17.08.2018 23:00:00 15,9 13,7 21 11 - - ZW 1015,4 30 0,0
17.08.2018 22:00:00 15,2 13,6 21 11 - - ZW 1015,6 29 0,0
17.08.2018 21:00:00 14,6 13,2 21 11 - - Z 1015,5 35 0,4
17.08.2018 20:00:00 14,9 12,7 22 12 - - ZZW 1015,5 35 0,0
17.08.2018 19:00:00 15,8 11,6 29 16 - - ZW 1015,4 45 0,0
17.08.2018 18:00:00 15,9 11,7 26 14 - - ZW 1015,6 30 0,0
17.08.2018 17:00:00 15,8 11,0 22 12 - - ZW 1016,0 27 0,0
17.08.2018 16:00:00 16,2 10,5 28 15 - - ZW 1016,3 40 0,0
17.08.2018 15:00:00 16,6 10,8 22 12 46 25 ZW 1016,4 10 0,0
17.08.2018 14:00:00 16,3 10,4 28 15 - - ZW 1016,6 10 0,0
17.08.2018 13:00:00 16,1 10,8 21 11 - - WZW 1016,9 10 0,0
17.08.2018 12:00:00 15,7 10,8 22 12 - - ZW 1016,9 10 0,0
17.08.2018 11:00:00 15,7 10,7 26 14 - - ZW 1016,7 10 0,0
17.08.2018 10:00:00 15,7 10,1 21 11 - - WZW 1016,6 10 0,0
17.08.2018 09:00:00 15,7 10,9 21 11 - - WZW 1016,2 10 0,0
17.08.2018 08:00:00 14,3 11,9 16 9 - - ZZW 1015,9 23 0,0
17.08.2018 07:00:00 12,2 11,7 9 5 - - Z 1015,7 16 0,0
17.08.2018 06:00:00 11,0 9,5 9 5 - - ZW 1015,4 35 0,0
17.08.2018 05:00:00 11,6 10,8 11 6 - - ZZW 1014,9 30 0,0
17.08.2018 04:00:00 9,1 7,2 11 6 - - Z 1014,8 14 0,0
17.08.2018 03:00:00 10,8 9,9 4 2 - - Z 1014,4 13 0,0
17.08.2018 02:00:00 12,6 10,4 9 5 - - ZW 1014,1 45 0,0
17.08.2018 01:00:00 13,6 10,7 18 10 - - WZW 1014,0 50 0,0
17.08.2018 00:00:00 13,1 10,4 9 5 - - WZW 1013,8 45 0,0
16.08.2018 23:00:00 13,4 10,3 15 8 - - ZW 1013,5 40 0,0
16.08.2018 22:00:00 14,1 10,0 15 8 - - WZW 1012,9 35 0,0
16.08.2018 21:00:00 14,5 10,3 15 8 - - ZW 1012,4 40 0,0
16.08.2018 20:00:00 15,7 10,4 16 9 - - WZW 1011,7 45 0,0
16.08.2018 19:00:00 16,4 10,3 26 14 - - WZW 1011,4 45 0,0
16.08.2018 18:00:00 16,9 8,8 24 13 48 26 WZW 1010,8 40 0,0
16.08.2018 17:00:00 17,1 9,4 26 14 - - WZW 1010,4 10 0,0
16.08.2018 16:00:00 17,0 9,2 29 16 - - WZW 1010,2 40 0,0
16.08.2018 15:00:00 17,4 9,6 29 16 - - W 1009,6 10 0,0
16.08.2018 14:00:00 17,5 10,0 29 16 48 26 WZW 1009,3 10 0,0
16.08.2018 13:00:00 17,4 10,5 22 12 - - WZW 1009,3 29 0,0
16.08.2018 12:00:00 16,5 10,0 21 11 - - WZW 1009,3 35 0,0
16.08.2018 11:00:00 16,2 9,1 22 12 - - W 1009,0 10 0,0
16.08.2018 10:00:00 15,0 10,9 13 7 - - ZZW 1008,8 10 0,0
16.08.2018 09:00:00 14,9 9,1 21 11 - - W 1008,7 10 0,0
16.08.2018 08:00:00 14,6 11,4 11 6 - - ZW 1008,3 24 0,0
16.08.2018 07:00:00 15,8 12,5 15 8 - - W 1007,8 45 0,0
16.08.2018 06:00:00 16,5 13,9 13 7 - - ZW 1007,3 45 0,0
16.08.2018 05:00:00 16,3 14,1 5 3 - - WZW 1007,5 50 0,0
16.08.2018 04:00:00 17,1 14,2 18 10 - - ZW 1007,6 45 0,0
16.08.2018 03:00:00 17,5 15,0 24 13 - - ZW 1007,8 50 0,0
16.08.2018 02:00:00 16,9 15,5 13 7 - - Z 1008,3 50 0,0
16.08.2018 01:00:00 16,6 15,5 8 4 - - Z 1009,1 50 0,0
16.08.2018 00:00:00 17,2 15,0 24 13 - - ZW 1009,1 50 0,0
15.08.2018 23:00:00 17,2 15,2 16 9 - - ZW 1009,5 10 0,6
15.08.2018 22:00:00 18,8 16,5 24 13 - - ZZW 1009,6 30 0,0
15.08.2018 21:00:00 18,9 16,6 28 15 - - ZZW 1009,7 50 0,2
15.08.2018 20:00:00 19,2 16,9 29 16 55 30 ZZW 1009,5 50 1,6
15.08.2018 19:00:00 21,7 16,2 28 15 50 27 ZW 1009,8 40 0,0
15.08.2018 18:00:00 22,9 16,4 35 19 52 28 ZZW 1009,8 50 0,0
15.08.2018 17:00:00 23,0 16,3 31 17 50 27 ZW 1010,4 10 0,0
15.08.2018 16:00:00 22,6 16,4 29 16 52 28 WZW 1011,1 10 0,0
15.08.2018 15:00:00 22,7 16,9 28 15 46 25 ZW 1011,8 10 0,0
15.08.2018 14:00:00 21,4 16,3 22 12 - - ZZW 1012,3 10 0,0
15.08.2018 13:00:00 21,4 16,0 24 13 46 25 ZW 1012,3 10 0,0
15.08.2018 12:00:00 20,9 15,7 28 15 - - ZW 1012,6 10 0,0
15.08.2018 11:00:00 20,7 15,4 28 15 - - ZW 1012,7 10 0,0
15.08.2018 10:00:00 19,1 14,8 22 12 - - WZW 1013,0 10 0,0
15.08.2018 09:00:00 18,5 15,0 13 7 - - Z 1013,0 10 0,0
15.08.2018 08:00:00 17,4 15,0 15 8 - - ZZO 1012,9 15 0,0
15.08.2018 07:00:00 17,1 14,6 9 5 - - ZZO 1013,1 22 0,0
15.08.2018 06:00:00 17,4 14,5 21 11 - - ZZW 1013,1 24 0,0
15.08.2018 05:00:00 17,5 14,6 21 11 - - ZW 1013,2 30 0,0

tt = temperatuur
td = dauwpunt
ff = windsnelheid
fx = windstoten
dd = windrichting
ppp = luchtdruk
vv = zicht
rr = neerslag

Weerstations in de omgeving